Temp
76 73 73 71 70 70 71 70 72 72 71 72 73 74 73 73 73 74 73 74 73 72
75 73 72 70 71 70 70 71 71 72 71 73 73 73 75 74 74 74 74 73 73 71
78 74 70 70 70 69 68 68 69 70 73 73 72 73 75 74 75 74 74 74 73 73
77 72 71 70 69 69 68 68 69 70 70 71 71 73 74 75 75 73 73 74 73 74
79 73 71 71 69 68 68 68 70 69 69 69 70 71 74 75 76 74 73 74 73 74
78 76 73 72 70 69 69 68 68 69 68 69 69 72 75 75 75 75 74 74 73 73
79 79 76 74 72 69 69 68 68 68 68 69 71 74 76 74 75 75 75 74 73 72
80 80 78 75 74 70 70 70 70 71 72 74 76 76 75 76 75 73 72 71 72 71
80 80 79 76 75 75 72 72 74 74 75 75 77 72 74 76 73 72 71 69 69 69
81 80 79 77 76 76 75 75 74 74 75 75 74 70 71 74 73 71 69 69 69 70
80 80 79 78 77 78 75 76 75 75 75 73 72 68 70 73 72 70 70 69 68 65
80 80 79 78 77 78 75 74 74 75 73 71 69 64 67 71 71 70 69 66 66 64
80 80 80 80 78 77 76 76 75 74 73 69 67 61 63 68 71 69 64 62 62 65
81 80 81 80 77 78 77 75 74 73 70 68 66 63 61 64 69 69 64 62 60 60
MSLP
1014.09 1014.82 1015.46 1015.77 1015.97 1015.95 1015.89 1015.42 1015.11 1015.74 1016.42 1016.20 1016.55 1016.58 1016.98 1017.45 1017.58 1017.61 1017.66 1017.65 1017.72 1017.82
1013.35 1014.21 1015.00 1015.52 1015.46 1015.35 1015.41 1015.47 1015.56 1015.84 1016.23 1016.19 1016.22 1016.41 1016.85 1017.03 1017.27 1017.31 1017.22 1017.18 1017.42 1017.55
1013.00 1013.88 1014.60 1015.22 1015.56 1015.19 1015.09 1015.42 1015.81 1015.89 1016.06 1016.08 1016.44 1016.35 1016.59 1016.79 1016.89 1016.93 1017.01 1017.14 1017.11 1017.18
1012.72 1013.58 1014.24 1014.71 1015.29 1015.37 1015.25 1015.34 1015.61 1015.83 1016.15 1016.25 1016.35 1016.14 1016.54 1016.56 1016.60 1016.72 1016.87 1017.03 1017.06 1016.93
1012.33 1013.17 1013.77 1014.18 1014.59 1015.29 1015.24 1015.20 1015.19 1015.60 1015.97 1016.00 1016.00 1016.23 1016.54 1016.54 1016.41 1016.47 1016.72 1016.69 1016.78 1016.74
1012.16 1012.78 1013.47 1013.85 1014.08 1014.99 1015.02 1015.00 1015.13 1015.52 1015.66 1015.78 1016.02 1016.21 1016.41 1016.00 1016.17 1016.28 1016.40 1016.46 1016.76 1016.85
1011.47 1011.93 1012.77 1013.30 1013.62 1014.26 1014.72 1015.08 1015.17 1015.17 1015.34 1015.68 1015.88 1015.90 1015.87 1015.79 1015.93 1016.16 1016.39 1016.62 1016.72 1016.88
1010.58 1011.23 1012.11 1012.80 1013.20 1013.78 1014.33 1014.63 1014.86 1014.98 1015.15 1015.39 1015.44 1015.39 1015.63 1015.76 1016.02 1016.39 1016.74 1016.77 1016.86 1017.05
1010.36 1010.77 1011.33 1012.14 1012.58 1013.08 1013.70 1014.06 1014.36 1014.89 1014.88 1014.93 1014.96 1014.96 1015.10 1015.38 1015.90 1016.49 1016.70 1016.81 1017.04 1017.23
1009.90 1010.48 1010.85 1011.26 1012.00 1012.57 1013.06 1013.44 1013.97 1014.25 1014.37 1014.51 1014.54 1014.85 1014.96 1015.27 1015.74 1016.13 1016.42 1016.71 1017.04 1017.39
1009.19 1009.91 1010.48 1010.93 1011.25 1011.79 1012.37 1012.81 1013.20 1013.66 1013.83 1014.07 1014.37 1014.61 1014.88 1015.12 1015.46 1015.98 1016.35 1016.68 1016.96 1017.19
1008.38 1009.08 1009.81 1010.31 1010.59 1011.22 1011.89 1012.48 1012.75 1013.16 1013.63 1014.03 1014.52 1014.87 1015.01 1015.15 1015.49 1016.08 1016.64 1016.99 1017.11 1017.26
1007.73 1008.38 1008.97 1009.41 1009.98 1010.54 1011.17 1011.73 1012.36 1012.98 1013.46 1013.84 1014.54 1014.91 1014.87 1015.26 1015.69 1016.37 1017.10 1017.37 1017.47 1017.51
1007.11 1007.73 1008.23 1008.82 1009.61 1010.11 1010.84 1011.49 1012.14 1012.78 1013.32 1013.63 1014.17 1014.66 1014.95 1015.25 1015.52 1016.10 1016.92 1017.27 1017.68 1017.93
Wind_Speed
11 7 7 10 7 6 6 5 5 5 4 5 3 3 5 3 4 4 5 6 4 2
8 9 9 9 7 5 5 6 6 7 8 5 4 1 4 4 5 5 5 6 4 3
8 8 9 10 10 7 5 4 5 5 6 5 3 2 5 4 4 5 3 3 2 2
8 10 10 11 8 7 6 6 6 6 5 4 4 2 3 4 2 4 4 3 3 3
9 10 9 8 8 8 8 7 6 6 4 2 3 4 5 4 3 4 2 3 2 3
10 10 10 9 6 7 5 5 3 3 5 4 5 5 7 5 3 3 4 2 0 3
12 11 10 10 8 7 6 6 6 6 6 6 7 7 6 5 5 3 2 3 4 2
13 11 10 11 10 7 8 7 6 6 6 7 7 5 6 6 5 6 5 4 3 4
12 11 11 10 10 9 9 9 8 8 7 7 4 8 9 8 6 6 6 5 5 4
14 13 13 11 10 11 10 10 9 7 7 7 7 6 7 12 7 6 6 6 5 4
14 13 12 12 10 10 7 10 8 7 7 6 4 6 10 13 7 6 6 6 6 6
14 14 13 13 11 9 8 5 5 5 7 6 5 4 7 8 6 6 5 4 5 6
13 14 15 14 11 7 6 7 6 6 7 8 7 8 9 6 4 5 5 4 4 6
14 15 14 12 7 9 8 7 7 7 5 6 7 6 6 9 5 5 5 4 3 2
Wind_Direction
162 165 166 161 189 186 193 200 190 178 211 159 161 199 213 206 224 218 233 249 239 238
169 146 159 162 187 198 186 217 210 194 187 197 183 197 219 198 217 216 232 228 239 217
172 137 150 160 183 207 219 222 213 199 198 166 219 292 201 201 224 222 251 256 293 248
163 145 158 177 180 194 211 213 209 193 173 179 231 298 231 207 218 224 233 246 209 248
168 151 166 192 178 176 206 206 199 162 165 218 281 292 259 215 237 239 233 254 217 298
173 166 179 196 190 171 196 226 233 204 209 227 254 255 245 209 203 214 188 150 99 360
186 183 173 188 195 173 186 191 202 207 210 224 242 222 208 163 185 148 77 79 71 52
189 183 165 180 198 174 187 199 198 196 205 215 213 194 170 192 144 118 98 83 81 45
180 187 191 175 188 187 192 203 201 201 194 205 210 188 186 149 135 144 146 134 111 87
182 185 191 196 180 188 189 188 192 183 190 199 212 200 187 143 150 149 148 136 134 122
181 183 186 187 190 190 173 181 182 181 182 185 199 171 166 147 149 144 145 149 146 124
179 180 182 189 185 183 168 176 178 171 171 170 162 158 155 150 146 136 128 123 123 130
178 181 189 188 182 167 167 178 164 165 176 167 158 200 192 174 143 139 130 108 105 107
181 185 188 182 167 169 172 159 164 168 157 151 171 198 200 192 178 161 151 148 134 110